Terug naar catalogus

GEESAT 2-02

ActiefWetenschapLEO
NORAD 58906·PAYLOAD·🇨🇳 China

Gelanceerd Feb 2, 2024 vanaf Xichang Satellite Launch Center

Loading…

Volgende Passages (komende 24 uur)

TLE

VersSource: Space-Track

Epoch: Sep 14, 2026, 22:13 UTC

1 58906U 24023B   26257.92618510  .00001024  00000-0  15069-3 0  9994
2 58906  49.9992 298.5636 0014739 341.5650  18.4752 14.83447772142235

Volg GEESAT 2-02 in realtime met AllMySat

Download on the App Store